datetime,storage
1981-01-01,105553.0
1981-01-02,105553.0
1981-01-03,105553.0
1981-01-04,105553.0
1981-01-05,105532.0
1981-01-06,105532.0
1981-01-07,105532.0
1981-01-08,105510.0
1981-01-09,105510.0
1981-01-10,105510.0
1981-01-11,105489.0
1981-01-12,105489.0
1981-01-13,105489.0
1981-01-14,105467.0
1981-01-15,105446.0
1981-01-16,105421.0
1981-01-17,105424.0
1981-01-18,105403.0
1981-01-19,105403.0
1981-01-20,105381.0
1981-01-21,105360.0
1981-01-22,105360.0
1981-01-23,105360.0
1981-01-24,105338.0
1981-01-25,105317.0
1981-01-26,105317.0
1981-01-27,105295.0
1981-01-28,105274.0
1981-01-29,105274.0
1981-01-30,105274.0
1981-01-31,105274.0
1981-02-01,105252.0
1981-02-02,105252.0
1981-02-03,105231.0
1981-02-04,105231.0
1981-02-05,105231.0
1981-02-06,105209.0
1981-02-07,105166.0
1981-02-08,105145.0
1981-02-09,105123.0
1981-02-10,105102.0
1981-02-11,105080.0
1981-02-12,105080.0
1981-02-13,105080.0
1981-02-14,105080.0
1981-02-15,105059.0
1981-02-16,105037.0
1981-02-17,105037.0
1981-02-18,105016.0
1981-02-19,104994.0
1981-02-20,104973.0
1981-02-21,104952.0
1981-02-22,104952.0
1981-02-23,104930.0
1981-02-24,104909.0
1981-02-25,104887.0
1981-02-26,104887.0
1981-02-27,104866.0
1981-02-28,104866.0
1981-03-01,104866.0
1981-03-02,104866.0
1981-03-03,104844.0
1981-03-04,104866.0
1981-03-05,104866.0
1981-03-06,104844.0
1981-03-07,104844.0
1981-03-08,104887.0
1981-03-09,104887.0
1981-03-10,104887.0
1981-03-11,104909.0
1981-03-12,104930.0
1981-03-13,104930.0
1981-03-14,104930.0
1981-03-15,104909.0
1981-03-16,104887.0
1981-03-17,104930.0
1981-03-18,104930.0
1981-03-19,104930.0
1981-03-20,104909.0
1981-03-21,104887.0
1981-03-22,104866.0
1981-03-23,104866.0
1981-03-24,104844.0
1981-03-25,104844.0
1981-03-26,104823.0
1981-03-27,104801.0
1981-03-28,104780.0
1981-03-29,104758.0
1981-03-30,104737.0
1981-03-31,104715.0
1981-04-01,104694.0
1981-04-02,104694.0
1981-04-03,104672.0
1981-04-04,104672.0
1981-04-05,104651.0
1981-04-06,104629.0
1981-04-07,104608.0
1981-04-08,104629.0
1981-04-09,104617.0
1981-04-10,104560.0
1981-04-11,104463.0
1981-04-12,104417.0
1981-04-13,104382.0
1981-04-14,104361.0
1981-04-15,104298.0
1981-04-16,104190.0
1981-04-17,103932.0
1981-04-18,103932.0
1981-04-19,103932.0
1981-04-20,103790.0
1981-04-21,103563.0
1981-04-22,103353.0
1981-04-23,103126.0
1981-04-24,102628.0
1981-04-25,102628.0
1981-04-26,102628.0
1981-04-27,102406.0
1981-04-28,102305.0
1981-04-29,102131.0
1981-04-30,102042.0
1981-05-01,101973.0
1981-05-02,101894.0
1981-05-03,101629.0
1981-05-04,101416.0
1981-05-05,101292.0
1981-05-06,100962.0
1981-05-07,100738.0
1981-05-08,100556.0
1981-05-09,100556.0
1981-05-10,100556.0
1981-05-11,100433.0
1981-05-12,100330.0
1981-05-13,100228.0
1981-05-14,100026.0
1981-05-15,99643.0
1981-05-16,99643.0
1981-05-17,99643.0
1981-05-18,99521.0
1981-05-19,99398.0
1981-05-20,99296.0
1981-05-21,99194.0
1981-05-22,99113.0
1981-05-23,99113.0
1981-05-24,99113.0
1981-05-25,99113.0
1981-05-26,99022.0
1981-05-27,99135.0
1981-05-28,99406.0
1981-05-29,99673.0
1981-05-30,100102.0
1981-05-31,100631.0
1981-06-01,100980.0
1981-06-02,101531.0
1981-06-03,101885.0
1981-06-04,102494.0
1981-06-05,103487.0
1981-06-06,104546.0
1981-06-07,105644.0
1981-06-08,106447.0
1981-06-09,107457.0
1981-06-10,108378.0
1981-06-11,109128.0
1981-06-12,109869.0
1981-06-13,110630.0
1981-06-14,110686.0
1981-06-15,111041.0
1981-06-16,111459.0
1981-06-17,111868.0
1981-06-18,112001.0
1981-06-19,111890.0
1981-06-20,111626.0
1981-06-21,111409.0
1981-06-22,111692.0
1981-06-23,111518.0
1981-06-24,111387.0
1981-06-25,111365.0
1981-06-26,111735.0
1981-06-27,112134.0
1981-06-28,112333.0
1981-06-29,112821.0
1981-06-30,114242.0
1981-07-01,116518.0
1981-07-02,116518.0
1981-07-03,116472.0
1981-07-04,116312.0
1981-07-05,116086.0
1981-07-06,115996.0
1981-07-07,115951.0
1981-07-08,115816.0
1981-07-09,115681.0
1981-07-10,115569.0
1981-07-11,115344.0
1981-07-12,115075.0
1981-07-13,114984.0
1981-07-14,115321.0
1981-07-15,116289.0
1981-07-16,116312.0
1981-07-17,116357.0
1981-07-18,116334.0
1981-07-19,116176.0
1981-07-20,115906.0
1981-07-21,115321.0
1981-07-22,114399.0
1981-07-23,112954.0
1981-07-24,111561.0
1981-07-25,110406.0
1981-07-26,109448.0
1981-07-27,108546.0
1981-07-28,107535.0
1981-07-29,106666.0
1981-07-30,105966.0
1981-07-31,105393.0
1981-08-01,104828.0
1981-08-02,104222.0
1981-08-03,103447.0
1981-08-04,102328.0
1981-08-05,101213.0
1981-08-06,100090.0
1981-08-07,98889.0
1981-08-08,97698.0
1981-08-09,96535.0
1981-08-10,95736.0
1981-08-11,95536.0
1981-08-12,95756.0
1981-08-13,95956.0
1981-08-14,95956.0
1981-08-15,96155.0
1981-08-16,96314.0
1981-08-17,96414.0
1981-08-18,96414.0
1981-08-19,96435.0
1981-08-20,96474.0
1981-08-21,96514.0
1981-08-22,96514.0
1981-08-23,96514.0
1981-08-24,96514.0
1981-08-25,96414.0
1981-08-26,95696.0
1981-08-27,95417.0
1981-08-28,95257.0
1981-08-29,95136.0
1981-08-30,94583.0
1981-08-31,93517.0
1981-09-01,90857.0
1981-09-02,88775.0
1981-09-03,88545.0
1981-09-04,86624.0
1981-09-05,85964.0
1981-09-06,86323.0
1981-09-07,86266.0
1981-09-08,86248.0
1981-09-09,88406.0
1981-09-10,89503.0
1981-09-11,89138.0
1981-09-12,88183.0
1981-09-13,85662.0
1981-09-14,85156.0
1981-09-15,83778.0
1981-09-16,83629.0
1981-09-17,83500.0
1981-09-18,84300.0
1981-09-19,85156.0
1981-09-20,84505.0
1981-09-21,85586.0
1981-09-22,85832.0
1981-09-23,88354.0
1981-09-24,88909.0
1981-09-25,89250.0
1981-09-26,89329.0
1981-09-27,88106.0
1981-09-28,88966.0
1981-09-29,88870.0
1981-09-30,88775.0
1981-10-01,88641.0
1981-10-02,88527.0
1981-10-03,88431.0
1981-10-04,88316.0
1981-10-05,88106.0
1981-10-06,87934.0
1981-10-07,87724.0
1981-10-08,87494.0
1981-10-09,87361.0
1981-10-10,87248.0
1981-10-11,87153.0
1981-10-12,87040.0
1981-10-13,86907.0
1981-10-14,87228.0
1981-10-15,88507.0
1981-10-16,88584.0
1981-10-17,88431.0
1981-10-18,88297.0
1981-10-19,88661.0
1981-10-20,88661.0
1981-10-21,89697.0
1981-10-22,91851.0
1981-10-23,90935.0
1981-10-24,90837.0
1981-10-25,90509.0
1981-10-26,89659.0
1981-10-27,89485.0
1981-10-28,90104.0
1981-10-29,90471.0
1981-10-30,92457.0
1981-10-31,90374.0
1981-11-01,90180.0
1981-11-02,90064.0
1981-11-03,89930.0
1981-11-04,91244.0
1981-11-05,91089.0
1981-11-06,90953.0
1981-11-07,90799.0
1981-11-08,90645.0
1981-11-09,93259.0
1981-11-10,95956.0
1981-11-11,94879.0
1981-11-12,93318.0
1981-11-13,93259.0
1981-11-14,91537.0
1981-11-15,91460.0
1981-11-16,94386.0
1981-11-17,94168.0
1981-11-18,92906.0
1981-11-19,93951.0
1981-11-20,93872.0
1981-11-21,93774.0
1981-11-22,93694.0
1981-11-23,93793.0
1981-11-24,93675.0
1981-11-25,93595.0
1981-11-26,93497.0
1981-11-27,94464.0
1981-11-28,94347.0
1981-11-29,94287.0
1981-11-30,94663.0
1981-12-01,94544.0
1981-12-02,94425.0
1981-12-03,94643.0
1981-12-04,96314.0
1981-12-05,96015.0
1981-12-06,95736.0
1981-12-07,95436.0
1981-12-08,95176.0
1981-12-09,94899.0
1981-12-10,94643.0
1981-12-11,97920.0
1981-12-12,97819.0
1981-12-13,98828.0
1981-12-14,99641.0
1981-12-15,99682.0
1981-12-16,97880.0
1981-12-17,97578.0
1981-12-18,97678.0
1981-12-19,97375.0
1981-12-20,97093.0
1981-12-21,100620.0
1981-12-22,99804.0
1981-12-23,97859.0
1981-12-24,97557.0
1981-12-25,97295.0
1981-12-26,97053.0
1981-12-27,96854.0
1981-12-28,96634.0
1981-12-29,96414.0
1981-12-30,96335.0
1981-12-31,97073.0
1982-01-01,97033.0
1982-01-02,96874.0
1982-01-03,96733.0
1982-01-04,96535.0
1982-01-05,96354.0
1982-01-06,96155.0
1982-01-07,95935.0
1982-01-08,95716.0
1982-01-09,95856.0
1982-01-10,95636.0
1982-01-11,96395.0
1982-01-12,97014.0
1982-01-13,99273.0
1982-01-14,97416.0
1982-01-15,97638.0
1982-01-16,97254.0
1982-01-17,96854.0
1982-01-18,97477.0
1982-01-19,97112.0
1982-01-20,96774.0
1982-01-21,96395.0
1982-01-22,97335.0
1982-01-23,96953.0
1982-01-24,96574.0
1982-01-25,96215.0
1982-01-26,95835.0
1982-01-27,95516.0
1982-01-28,95117.0
1982-01-29,94781.0
1982-01-30,95406.0
1982-01-31,94049.0
1982-02-01,95176.0
1982-02-02,96774.0
1982-02-03,98687.0
1982-02-04,98828.0
1982-02-05,97496.0
1982-02-06,95816.0
1982-02-07,95417.0
1982-02-08,95935.0
1982-02-09,96395.0
1982-02-10,96175.0
1982-02-11,95675.0
1982-02-12,95176.0
1982-02-13,94622.0
1982-02-14,94090.0
1982-02-15,93595.0
1982-02-16,93043.0
1982-02-17,92495.0
1982-02-18,91948.0
1982-02-19,91420.0
1982-02-20,94603.0
1982-02-21,92203.0
1982-02-22,92144.0
1982-02-23,92848.0
1982-02-24,92495.0
1982-02-25,92027.0
1982-02-26,91518.0
1982-02-27,90973.0
1982-02-28,90471.0
1982-03-01,89910.0
1982-03-02,89329.0
1982-03-03,88756.0
1982-03-04,88183.0
1982-03-05,87590.0
1982-03-06,87002.0
1982-03-07,86417.0
1982-03-08,85832.0
1982-03-09,85231.0
1982-03-10,84635.0
1982-03-11,84076.0
1982-03-12,83573.0
1982-03-13,83005.0
1982-03-14,82435.0
1982-03-15,81756.0
1982-03-16,81122.0
1982-03-17,80490.0
1982-03-18,79911.0
1982-03-19,79287.0
1982-03-20,78647.0
1982-03-21,78025.0
1982-03-22,77376.0
1982-03-23,77113.0
1982-03-24,76955.0
1982-03-25,76797.0
1982-03-26,76621.0
1982-03-27,76445.0
1982-03-28,76255.0
1982-03-29,77675.0
1982-03-30,77271.0
1982-03-31,77060.0
1982-04-01,76868.0
1982-04-02,77744.0
1982-04-03,77446.0
1982-04-04,77253.0
1982-04-05,77902.0
1982-04-06,77692.0
1982-04-07,79804.0
1982-04-08,79591.0
1982-04-09,79412.0
1982-04-10,79216.0
1982-04-11,79056.0
1982-04-12,82490.0
1982-04-13,81958.0
1982-04-14,82582.0
1982-04-15,83536.0
1982-04-16,83408.0
1982-04-17,83279.0
1982-04-18,83170.0
1982-04-19,83796.0
1982-04-20,83666.0
1982-04-21,84114.0
1982-04-22,84002.0
1982-04-23,83796.0
1982-04-24,83573.0
1982-04-25,83353.0
1982-04-26,83114.0
1982-04-27,83005.0
1982-04-28,82913.0
1982-04-29,82729.0
1982-04-30,82582.0
1982-05-01,82454.0
1982-05-02,82398.0
1982-05-03,82270.0
1982-05-04,82398.0
1982-05-05,82031.0
1982-05-06,82527.0
1982-05-07,82894.0
1982-05-08,82711.0
1982-05-09,82527.0
1982-05-10,82380.0
1982-05-11,82177.0
1982-05-12,82104.0
1982-05-13,81921.0
1982-05-14,81647.0
1982-05-15,81448.0
1982-05-16,81304.0
1982-05-17,82252.0
1982-05-18,82123.0
1982-05-19,83096.0
1982-05-20,83555.0
1982-05-21,84300.0
1982-05-22,84207.0
1982-05-23,84114.0
1982-05-24,84095.0
1982-05-25,84318.0
1982-05-26,84840.0
1982-05-27,86097.0
1982-05-28,86531.0
1982-05-29,86473.0
1982-05-30,86417.0
1982-05-31,86926.0
1982-06-01,87418.0
1982-06-02,87021.0
1982-06-03,86228.0
1982-06-04,86833.0
1982-06-05,87437.0
1982-06-06,87590.0
1982-06-07,87590.0
1982-06-08,87801.0
1982-06-09,88718.0
1982-06-10,90953.0
1982-06-11,92222.0
1982-06-12,92437.0
1982-06-13,92647.0
1982-06-14,92535.0
1982-06-15,95816.0
1982-06-16,95835.0
1982-06-17,96075.0
1982-06-18,97194.0
1982-06-19,97033.0
1982-06-20,96554.0
1982-06-21,96354.0
1982-06-22,97375.0
1982-06-23,97395.0
1982-06-24,97578.0
1982-06-25,97779.0
1982-06-26,97941.0
1982-06-27,98182.0
1982-06-28,99233.0
1982-06-29,100906.0
1982-06-30,101130.0
1982-07-01,101336.0
1982-07-02,101378.0
1982-07-03,101956.0
1982-07-04,102163.0
1982-07-05,102246.0
1982-07-06,102142.0
1982-07-07,102605.0
1982-07-08,102411.0
1982-07-09,102948.0
1982-07-10,102969.0
1982-07-11,103093.0
1982-07-12,104431.0
1982-07-13,104514.0
1982-07-14,104452.0
1982-07-15,104368.0
1982-07-16,105648.0
1982-07-17,105436.0
1982-07-18,105267.0
1982-07-19,105183.0
1982-07-20,105163.0
1982-07-21,105163.0
1982-07-22,106644.0
1982-07-23,108525.0
1982-07-24,108481.0
1982-07-25,108460.0
1982-07-26,108460.0
1982-07-27,109104.0
1982-07-28,109341.0
1982-07-29,109597.0
1982-07-30,111934.0
1982-07-31,111518.0
1982-08-01,111082.0
1982-08-02,113086.0
1982-08-03,112732.0
1982-08-04,112533.0
1982-08-05,114737.0
1982-08-06,115749.0
1982-08-07,115164.0
1982-08-08,112377.0
1982-08-09,110777.0
1982-08-10,110013.0
1982-08-11,109169.0
1982-08-12,109773.0
1982-08-13,111016.0
1982-08-14,110377.0
1982-08-15,109663.0
1982-08-16,108911.0
1982-08-17,108202.0
1982-08-18,107879.0
1982-08-19,108138.0
1982-08-20,107427.0
1982-08-21,106750.0
1982-08-22,106115.0
1982-08-23,107089.0
1982-08-24,108911.0
1982-08-25,109751.0
1982-08-26,109555.0
1982-08-27,110188.0
1982-08-28,110057.0
1982-08-29,109903.0
1982-08-30,109751.0
1982-08-31,109555.0
1982-09-01,109383.0
1982-09-02,109233.0
1982-09-03,109062.0
1982-09-04,108890.0
1982-09-05,108825.0
1982-09-06,108697.0
1982-09-07,108589.0
1982-09-08,108374.0
1982-09-09,108159.0
1982-09-10,107943.0
1982-09-11,107152.0
1982-09-12,107131.0
1982-09-13,105246.0
1982-09-14,102122.0
1982-09-15,102328.0
1982-09-16,102163.0
1982-09-17,101977.0
1982-09-18,101874.0
1982-09-19,101770.0
1982-09-20,101832.0
1982-09-21,101750.0
1982-09-22,103405.0
1982-09-23,104012.0
1982-09-24,103803.0
1982-09-25,103593.0
1982-09-26,103405.0
1982-09-27,103237.0
1982-09-28,103031.0
1982-09-29,102907.0
1982-09-30,102948.0
1982-10-01,102824.0
1982-10-02,102679.0
1982-10-03,102535.0
1982-10-04,102328.0
1982-10-05,102142.0
1982-10-06,101853.0
1982-10-07,101708.0
1982-10-08,101563.0
1982-10-09,101336.0
1982-10-10,101213.0
1982-10-11,101028.0
1982-10-12,100783.0
1982-10-13,100580.0
1982-10-14,100477.0
1982-10-15,100417.0
1982-10-16,100355.0
1982-10-17,100294.0
1982-10-18,100090.0
1982-10-19,99886.0
1982-10-20,99702.0
1982-10-21,99498.0
1982-10-22,99376.0
1982-10-23,99192.0
1982-10-24,99029.0
1982-10-25,100314.0
1982-10-26,100927.0
1982-10-27,100865.0
1982-10-28,100743.0
1982-10-29,100640.0
1982-10-30,100539.0
1982-10-31,100457.0
1982-11-01,100437.0
1982-11-02,100457.0
1982-11-03,100437.0
1982-11-04,100417.0
1982-11-05,100417.0
1982-11-06,100396.0
1982-11-07,100376.0
1982-11-08,100314.0
1982-11-09,101460.0
1982-11-10,101439.0
1982-11-11,101791.0
1982-11-12,101729.0
1982-11-13,101646.0
1982-11-14,101563.0
1982-11-15,101750.0
1982-11-16,102328.0
1982-11-17,101750.0
1982-11-18,101233.0
1982-11-19,102287.0
1982-11-20,101750.0
1982-11-21,101150.0
1982-11-22,102452.0
1982-11-23,101853.0
1982-11-24,101233.0
1982-11-25,100620.0
1982-11-26,100029.0
1982-11-27,99457.0
1982-11-28,98849.0
1982-11-29,99090.0
1982-11-30,99865.0
1982-12-01,99273.0
1982-12-02,98687.0
1982-12-03,99273.0
1982-12-04,98687.0
1982-12-05,98122.0
1982-12-06,100477.0
1982-12-07,99886.0
1982-12-08,99273.0
1982-12-09,98687.0
1982-12-10,100417.0
1982-12-11,99824.0
1982-12-12,99294.0
1982-12-13,98687.0
1982-12-14,98889.0
1982-12-15,98304.0
1982-12-16,100804.0
1982-12-17,100192.0
1982-12-18,99580.0
1982-12-19,98989.0
1982-12-20,98445.0
1982-12-21,99498.0
1982-12-22,98908.0
1982-12-23,98868.0
1982-12-24,99192.0
1982-12-25,98586.0
1982-12-26,97981.0
1982-12-27,98283.0
1982-12-28,99111.0
1982-12-29,99539.0
1982-12-30,98889.0
1982-12-31,98304.0
1983-01-01,97698.0
1983-01-02,97073.0
1983-01-03,99171.0
1983-01-04,98526.0
1983-01-05,98082.0
1983-01-06,98667.0
1983-01-07,99702.0
1983-01-08,99070.0
1983-01-09,98465.0
1983-01-10,97859.0
1983-01-11,98344.0
1983-01-12,98707.0
1983-01-13,98082.0
1983-01-14,98849.0
1983-01-15,98222.0
1983-01-16,97597.0
1983-01-17,98112.0
1983-01-18,97517.0
1983-01-19,97557.0
1983-01-20,98646.0
1983-01-21,98041.0
1983-01-22,97416.0
1983-01-23,96793.0
1983-01-24,99050.0
1983-01-25,98404.0
1983-01-26,97799.0
1983-01-27,98102.0
1983-01-28,99539.0
1983-01-29,98908.0
1983-01-30,98283.0
1983-01-31,98142.0
1983-02-01,98122.0
1983-02-02,98404.0
1983-02-03,99171.0
1983-02-04,98586.0
1983-02-05,98021.0
1983-02-06,97456.0
1983-02-07,97698.0
1983-02-08,97638.0
1983-02-09,97658.0
1983-02-10,97739.0
1983-02-11,98203.0
1983-02-12,97840.0
1983-02-13,97274.0
1983-02-14,99212.0
1983-02-15,98627.0
1983-02-16,98062.0
1983-02-17,97477.0
1983-02-18,98445.0
1983-02-19,97859.0
1983-02-20,97295.0
1983-02-21,96874.0
1983-02-22,97678.0
1983-02-23,98364.0
1983-02-24,97779.0
1983-02-25,98182.0
1983-02-26,97618.0
1983-02-27,97033.0
1983-02-28,96474.0
1983-03-01,95915.0
1983-03-02,98788.0
1983-03-03,102163.0
1983-03-04,101915.0
1983-03-05,101626.0
1983-03-06,101315.0
1983-03-07,101008.0
1983-03-08,100681.0
1983-03-09,100314.0
1983-03-10,99988.0
1983-03-11,99641.0
1983-03-12,99335.0
1983-03-13,98989.0
1983-03-14,98687.0
1983-03-15,98404.0
1983-03-16,98062.0
1983-03-17,97718.0
1983-03-18,97416.0
1983-03-19,97073.0
1983-03-20,96733.0
1983-03-21,96375.0
1983-03-22,96035.0
1983-03-23,95716.0
1983-03-24,95376.0
1983-03-25,95018.0
1983-03-26,94682.0
1983-03-27,94326.0
1983-03-28,93971.0
1983-03-29,93635.0
1983-03-30,93259.0
1983-03-31,92965.0
1983-04-01,92633.0
1983-04-02,92281.0
1983-04-03,91988.0
1983-04-04,91871.0
1983-04-05,91871.0
1983-04-06,91871.0
1983-04-07,91851.0
1983-04-08,91812.0
1983-04-09,91753.0
1983-04-10,91733.0
1983-04-11,91713.0
1983-04-12,91695.0
1983-04-13,91675.0
1983-04-14,91655.0
1983-04-15,91596.0
1983-04-16,91577.0
1983-04-17,91518.0
1983-04-18,91518.0
1983-04-19,91518.0
1983-04-20,91518.0
1983-04-21,91449.0
1983-04-22,91440.0
1983-04-23,91401.0
1983-04-24,91342.0
1983-04-25,91303.0
1983-04-26,91264.0
1983-04-27,91244.0
1983-04-28,91185.0
1983-04-29,91127.0
1983-04-30,91069.0
1983-05-01,90993.0
1983-05-02,90915.0
1983-05-03,90837.0
1983-05-04,90761.0
1983-05-05,90664.0
1983-05-06,90625.0
1983-05-07,90554.0
1983-05-08,90471.0
1983-05-09,90393.0
1983-05-10,90355.0
1983-05-11,90316.0
1983-05-12,90220.0
1983-05-13,90200.0
1983-05-14,90220.0
1983-05-15,90162.0
1983-05-16,90142.0
1983-05-17,90064.0
1983-05-18,89948.0
1983-05-19,89968.0
1983-05-20,89872.0
1983-05-21,89774.0
1983-05-22,89697.0
1983-05-23,89620.0
1983-05-24,89581.0
1983-05-25,89543.0
1983-05-26,89503.0
1983-05-27,89310.0
1983-05-28,89755.0
1983-05-29,90625.0
1983-05-30,91713.0
1983-05-31,92711.0
1983-06-01,93082.0
1983-06-02,93338.0
1983-06-03,93793.0
1983-06-04,94425.0
1983-06-05,95217.0
1983-06-06,96056.0
1983-06-07,97073.0
1983-06-08,98001.0
1983-06-09,99050.0
1983-06-10,100437.0
1983-06-11,102039.0
1983-06-12,103823.0
1983-06-13,104995.0
1983-06-14,105712.0
1983-06-15,105966.0
1983-06-16,105712.0
1983-06-17,105584.0
1983-06-18,106072.0
1983-06-19,106941.0
1983-06-20,107857.0
1983-06-21,108567.0
1983-06-22,109773.0
1983-06-23,110951.0
1983-06-24,112156.0
1983-06-25,112888.0
1983-06-26,113020.0
1983-06-27,112888.0
1983-06-28,112599.0
1983-06-29,112445.0
1983-06-30,112489.0
1983-07-01,112621.0
1983-07-02,112865.0
1983-07-03,113175.0
1983-07-04,113286.0
1983-07-05,113507.0
1983-07-06,113861.0
1983-07-07,114107.0
1983-07-08,114197.0
1983-07-09,114129.0
1983-07-10,114422.0
1983-07-11,114377.0
1983-07-12,113795.0
1983-07-13,112954.0
1983-07-14,112134.0
1983-07-15,111235.0
1983-07-16,110253.0
1983-07-17,109233.0
1983-07-18,108266.0
1983-07-19,107322.0
1983-07-20,106560.0
1983-07-21,105839.0
1983-07-22,104807.0
1983-07-23,103677.0
1983-07-24,102328.0
1983-07-25,100906.0
1983-07-26,99580.0
1983-07-27,98243.0
1983-07-28,97093.0
1983-07-29,96375.0
1983-07-30,96195.0
1983-07-31,96395.0
1983-08-01,97154.0
1983-08-02,98203.0
1983-08-03,99192.0
1983-08-04,100192.0
1983-08-05,101213.0
1983-08-06,102142.0
1983-08-07,102803.0
1983-08-08,103405.0
1983-08-09,103803.0
1983-08-10,104033.0
1983-08-11,104306.0
1983-08-12,104493.0
1983-08-13,104849.0
1983-08-14,105079.0
1983-08-15,105499.0
1983-08-16,105669.0
1983-08-17,105775.0
1983-08-18,105881.0
1983-08-19,106051.0
1983-08-20,106178.0
1983-08-21,106242.0
1983-08-22,106285.0
1983-08-23,106326.0
1983-08-24,106369.0
1983-08-25,106602.0
1983-08-26,106666.0
1983-08-27,106666.0
1983-08-28,100666.0
1983-08-29,107406.0
1983-08-30,107470.0
1983-08-31,107427.0
1983-09-01,107386.0
1983-09-02,107279.0
1983-09-03,107174.0
1983-09-04,107068.0
1983-09-05,106962.0
1983-09-06,106877.0
1983-09-07,107279.0
1983-09-08,108632.0
1983-09-09,108395.0
1983-09-10,108202.0
1983-09-11,107943.0
1983-09-12,107857.0
1983-09-13,109991.0
1983-09-14,108481.0
1983-09-15,108460.0
1983-09-16,109169.0
1983-09-17,109169.0
1983-09-18,109169.0
1983-09-19,109707.0
1983-09-20,110537.0
1983-09-21,110864.0
1983-09-22,110799.0
1983-09-23,110733.0
1983-09-24,110777.0
1983-09-25,110799.0
1983-09-26,110799.0
1983-09-27,110711.0
1983-09-28,110646.0
1983-09-29,110580.0
1983-09-30,110537.0
1983-10-01,
1983-10-02,
1983-10-03,
1983-10-04,
1983-10-05,
1983-10-06,
1983-10-07,
1983-10-08,
1983-10-09,
1983-10-10,
1983-10-11,
1983-10-12,
1983-10-13,
1983-10-14,
1983-10-15,
1983-10-16,
1983-10-17,
1983-10-18,
1983-10-19,
1983-10-20,
1983-10-21,
1983-10-22,
1983-10-23,
1983-10-24,
1983-10-25,
1983-10-26,
1983-10-27,
1983-10-28,
1983-10-29,
1983-10-30,
1983-10-31,
1983-11-01,
1983-11-02,
1983-11-03,
1983-11-04,
1983-11-05,
1983-11-06,
1983-11-07,
1983-11-08,
1983-11-09,
1983-11-10,
1983-11-11,
1983-11-12,
1983-11-13,
1983-11-14,
1983-11-15,
1983-11-16,
1983-11-17,
1983-11-18,
1983-11-19,
1983-11-20,
1983-11-21,
1983-11-22,
1983-11-23,
1983-11-24,
1983-11-25,
1983-11-26,
1983-11-27,
1983-11-28,
1983-11-29,
1983-11-30,
1983-12-01,
1983-12-02,
1983-12-03,
1983-12-04,
1983-12-05,
1983-12-06,
1983-12-07,
1983-12-08,
1983-12-09,
1983-12-10,
1983-12-11,
1983-12-12,
1983-12-13,
1983-12-14,
1983-12-15,
1983-12-16,
1983-12-17,
1983-12-18,
1983-12-19,
1983-12-20,
1983-12-21,
1983-12-22,
1983-12-23,
1983-12-24,
1983-12-25,
1983-12-26,
1983-12-27,
1983-12-28,
1983-12-29,
1983-12-30,
1983-12-31,
1984-01-01,
1984-01-02,
1984-01-03,
1984-01-04,
1984-01-05,
1984-01-06,
1984-01-07,
1984-01-08,
1984-01-09,
1984-01-10,
1984-01-11,
1984-01-12,
1984-01-13,
1984-01-14,
1984-01-15,
1984-01-16,
1984-01-17,
1984-01-18,
1984-01-19,
1984-01-20,
1984-01-21,
1984-01-22,
1984-01-23,
1984-01-24,
1984-01-25,
1984-01-26,
1984-01-27,
1984-01-28,
1984-01-29,
1984-01-30,
1984-01-31,
1984-02-01,
1984-02-02,
1984-02-03,
1984-02-04,
1984-02-05,
1984-02-06,
1984-02-07,
1984-02-08,
1984-02-09,
1984-02-10,
1984-02-11,
1984-02-12,
1984-02-13,
1984-02-14,
1984-02-15,
1984-02-16,
1984-02-17,
1984-02-18,
1984-02-19,
1984-02-20,
1984-02-21,
1984-02-22,
1984-02-23,
1984-02-24,
1984-02-25,
1984-02-26,
1984-02-27,
1984-02-28,
1984-02-29,
1984-03-01,
1984-03-02,
1984-03-03,
1984-03-04,
1984-03-05,
1984-03-06,
1984-03-07,
1984-03-08,
1984-03-09,
1984-03-10,
1984-03-11,
1984-03-12,
1984-03-13,
1984-03-14,
1984-03-15,
1984-03-16,
1984-03-17,
1984-03-18,
1984-03-19,
1984-03-20,
1984-03-21,
1984-03-22,
1984-03-23,
1984-03-24,
1984-03-25,
1984-03-26,
1984-03-27,
1984-03-28,
1984-03-29,
1984-03-30,
1984-03-31,
1984-04-01,
1984-04-02,
1984-04-03,
1984-04-04,
1984-04-05,
1984-04-06,
1984-04-07,
1984-04-08,
1984-04-09,
1984-04-10,
1984-04-11,
1984-04-12,
1984-04-13,
1984-04-14,
1984-04-15,
1984-04-16,
1984-04-17,
1984-04-18,
1984-04-19,
1984-04-20,
1984-04-21,
1984-04-22,
1984-04-23,
1984-04-24,
1984-04-25,
1984-04-26,
1984-04-27,
1984-04-28,
1984-04-29,
1984-04-30,
1984-05-01,
1984-05-02,
1984-05-03,
1984-05-04,
1984-05-05,
1984-05-06,
1984-05-07,
1984-05-08,
1984-05-09,
1984-05-10,
1984-05-11,
1984-05-12,
1984-05-13,
1984-05-14,
1984-05-15,
1984-05-16,
1984-05-17,
1984-05-18,
1984-05-19,
1984-05-20,
1984-05-21,
1984-05-22,
1984-05-23,
1984-05-24,
1984-05-25,
1984-05-26,
1984-05-27,
1984-05-28,
1984-05-29,
1984-05-30,
1984-05-31,
1984-06-01,
1984-06-02,
1984-06-03,
1984-06-04,
1984-06-05,
1984-06-06,
1984-06-07,
1984-06-08,
1984-06-09,
1984-06-10,
1984-06-11,
1984-06-12,
1984-06-13,
1984-06-14,
1984-06-15,
1984-06-16,
1984-06-17,
1984-06-18,
1984-06-19,
1984-06-20,
1984-06-21,
1984-06-22,
1984-06-23,
1984-06-24,
1984-06-25,
1984-06-26,
1984-06-27,
1984-06-28,
1984-06-29,
1984-06-30,
1984-07-01,
1984-07-02,
1984-07-03,
1984-07-04,
1984-07-05,
1984-07-06,
1984-07-07,
1984-07-08,
1984-07-09,
1984-07-10,
1984-07-11,
1984-07-12,
1984-07-13,
1984-07-14,
1984-07-15,
1984-07-16,
1984-07-17,
1984-07-18,
1984-07-19,
1984-07-20,
1984-07-21,
1984-07-22,
1984-07-23,
1984-07-24,
1984-07-25,
1984-07-26,
1984-07-27,
1984-07-28,
1984-07-29,
1984-07-30,
1984-07-31,
1984-08-01,
1984-08-02,
1984-08-03,
1984-08-04,
1984-08-05,
1984-08-06,
1984-08-07,
1984-08-08,
1984-08-09,
1984-08-10,
1984-08-11,
1984-08-12,
1984-08-13,
1984-08-14,
1984-08-15,
1984-08-16,
1984-08-17,
1984-08-18,
1984-08-19,
1984-08-20,
1984-08-21,
1984-08-22,
1984-08-23,
1984-08-24,
1984-08-25,
1984-08-26,
1984-08-27,
1984-08-28,
1984-08-29,
1984-08-30,
1984-08-31,
1984-09-01,
1984-09-02,
1984-09-03,
1984-09-04,
1984-09-05,
1984-09-06,
1984-09-07,
1984-09-08,
1984-09-09,
1984-09-10,
1984-09-11,
1984-09-12,
1984-09-13,
1984-09-14,
1984-09-15,
1984-09-16,
1984-09-17,
1984-09-18,
1984-09-19,
1984-09-20,
1984-09-21,
1984-09-22,
1984-09-23,
1984-09-24,
1984-09-25,
1984-09-26,
1984-09-27,
1984-09-28,
1984-09-29,
1984-09-30,
1984-10-01,
1984-10-02,
1984-10-03,
1984-10-04,
1984-10-05,